Regional Weather Roundup
Issued by NWS

Home | Current Version | Previous Version | Graphics & Text | Print | Product List | Glossary On
Versions: 1 2 3 4 5 6 7 8 9 10 11 12 13 14 15 16 17 18 19 20 21 22 23 24 25 26 27 28 29 30 31 32 33 34 35 36 37 38 39 40 41 42 43 44 45 46 47 48 49 50
000
ASUS43 KMPX 281310
RWRMN
WEATHER ROUNDUP FOR MINNESOTA
NATIONAL WEATHER SERVICE TWIN CITIES/CHANHASSEN MN
800 AM CDT TUE JUL 28 2015


NOTE: "FAIR" INDICATES FEW OR NO CLOUDS BELOW 12,000 FEET WITH NO
SIGNIFICANT WEATHER AND/OR OBSTRUCTIONS TO VISIBILITY. N/A MEANS
CURRENT SKY AND/OR WEATHER CONDITIONS ARE NOT AVAILABLE.

MNZ060>063-068>070-281400-
   Twin Cities Metro

CITY           SKY/WX    TMP DP  RH WIND       PRES   REMARKS
TWIN CITIES    LGT RAIN  72  68  87 E18       29.80F
ST PAUL        RAIN      70  69  97 SE5       29.83F FOG
CRYSTAL        LGT RAIN  72  67  84 SE9       29.77F
LAKEVILLE      TSTM      70  68  94 SW3       29.86F
EDEN PRAIRIE   LGT RAIN  72  70  93 SE12      29.82F
SOUTH ST PAUL  CLOUDY    70  69  96 E7        29.85F
LAKE ELMO      RAIN      70  68  94 SW12      29.91R
$$
MNZ001>005-007-008-013>017-022>024-027-028-281400-
   Northwest Minnesota

CITY           SKY/WX    TMP DP  RH WIND       PRES   REMARKS
BEMIDJI        LGT RAIN  70  69  96 SE7       29.68F
HALLOCK        CLOUDY    75  70  83 S20       29.56S
ROSEAU         CLOUDY    73  70  88 S18G24    29.60F
WARROAD        CLOUDY    75  72  88 S13G18    29.64F
THIEF RVR FALL CLOUDY    70  68  94 SE14      29.61F
CROOKSTON      CLOUDY    70  70 100 S13       29.62R
FOSSTON        LGT RAIN  70  68  94 CALM      29.66F
DETROIT LAKES  CLOUDY    70  68  94 SW9       29.72R
MOORHEAD       CLOUDY    70  68  94 SW5       29.68S
PARK RAPIDS    LGT RAIN  71  69  93 SE3       29.69R FOG
MAHNOMEN       CLOUDY    70  69  97 W7        29.68R
$$
MNZ006-009>011-018-025>026-281400-
   North Central Minnesota

CITY           SKY/WX    TMP DP  RH WIND       PRES   REMARKS
BAUDETTE       CLOUDY    72  68  87 SE10      29.68F
FLAG ISLAND    CLOUDY    73  70  88 SE17G23   29.64F
INTL FALLS     CLOUDY    72  67  84 SE10      29.75F
WASKISH        LGT RAIN  72  70  94 SE7       29.70F
BIG FORK       RAIN      72  68  88 SE8       29.74F
LONGVILLE      LGT RAIN  72  70  94 S15G21    29.69R
GRAND RAPIDS   CLOUDY    70  66  88 SE17G24   29.72F
CRANE LAKE     CLOUDY    70  66  88 SE2       29.81S
ORR            CLOUDY    72  64  78 SE10G17   29.77R
COOK           CLOUDY    72  66  83 SE9G16    29.80S
WALKER         CLOUDY    70  69  96 CALM      29.69S
$$
MNZ012-019>021-037-281400-
   Northeast Minnesota

CITY           SKY/WX    TMP DP  RH WIND       PRES   REMARKS
DULUTH         CLOUDY    71  66  84 SE12      29.86S
ELY            CLOUDY    70  64  83 SE8       29.85S HAZE
HIBBING        LGT RAIN  71  68  90 SE13      29.81S
EVELETH        LGT RAIN  68  66  94 SE9       29.83F
DULUTH HARBOR  CLOUDY    72  68  88 CALM      29.85R
TWO HARBORS    CLOUDY    70  64  83 E3        29.86R
SILVER BAY     CLOUDY    68  64  88 CALM      29.86S
GRAND MARAIS     N/A     59  57  93 E8        29.89R
G MARAIS ARPRT   N/A     66  61  82 E7        29.93F
$$
MNZ029>031-032-039>041-046>048-054>057-064-281400-
   West Central Minnesota

CITY           SKY/WX    TMP DP  RH WIND       PRES   REMARKS
FERGUS FALLS   CLOUDY    70  70 100 W8        29.70R
WHEATON        CLOUDY    66  66 100 W10       29.74R
MORRIS         CLOUDY    70  68  94 SW10G17   29.70R
ALEXANDRIA     CLOUDY    70  68  93 SW13      29.72R
ELBOW LAKE     CLOUDY    67  67  97 W6        29.70R
WADENA         CLOUDY    70  68  94 SE6       29.68R
GLENWOOD       CLOUDY    70  68  94 SW9       29.73R
APPLETON       CLOUDY    72  66  83 SW8       29.71R
BENSON         CLOUDY    70  66  88 SW9       29.71R
ORTONVILLE     CLOUDY    68  66  94 W8        29.74R
MADISON        CLOUDY    70  66  88 W8        29.73R
WILLMAR        FAIR      70  68  94 S3        29.71R
$$
MNZ033>034-036-042>043-049>051-058-059-281400-
   Central Minnesota

CITY           SKY/WX    TMP DP  RH WIND       PRES   REMARKS
ST CLOUD       CLOUDY    71  70  96 SE24G33   29.69F
SAUK CENTRE    CLOUDY   N/A N/A N/A S7        29.72R
PAYNESVILLE    CLOUDY    67  67  99 E18G28    29.70R
AITKIN         LGT RAIN  72  64  78 SE13G26   29.66F
PINE RIVER     CLOUDY    72  70  94 S6        29.72R
BRAINERD       LGT RAIN  71  68  90 S12G21    29.67F
STAPLES        CLOUDY    70  66  88 S12G18    29.68R
LONG PRAIRIE   CLOUDY    68  68 100 S9        29.71R
LITTLE FALLS   DRIZZLE   70  68  94 SE14G28   29.67R
LITCHFIELD     DRIZZLE   70  70 100 SE20G26   29.68F
BUFFALO        LGT RAIN  72  68  88 SE10G18   29.78F
MAPLE LAKE     CLOUDY    72  70  94 SE7       29.77F
$$
MNZ037-044-045-052-053-281400-
   East Central Minnesota

CITY           SKY/WX    TMP DP  RH WIND       PRES   REMARKS
PRINCETON      CLOUDY    73  72  94 SE12      29.73F
MORA           LGT RAIN  68  66  94 SE13      29.78F
CAMBRIDGE      CLOUDY    72  64  78 SE6       29.76F
RUSH CITY      CLOUDY    71  69  93 S7        29.83F
MOOSE LAKE     RAIN      70  68  94 S7        29.83S
HINCKLEY       RAIN      72  72 100 SE10      29.84F
CLOQUET        CLOUDY    72  66  83 SE7       29.85R
MCGREGOR       CLOUDY    72  68  88 SE20G26   29.76F
$$
MNZ071>073-080-081-089-090-097-098-281400-
   Southwest Minnesota

CITY           SKY/WX    TMP DP  RH WIND       PRES   REMARKS
MONTEVIDEO     CLOUDY    70  70 100 W6        29.72R
GRANITE FALLS  CLOUDY    68  66  93 S7        29.71R
CANBY          CLOUDY    70  65  86 SW7       29.75R
MARSHALL       CLOUDY    68  63  83 SW14      29.75R
REDWOOD FALLS  CLOUDY    69  65  86 SE10      29.70F
OLIVIA         CLOUDY    68  63  83 S13G20    29.68F
PIPESTONE      CLOUDY    68  66  94 SW13      29.82R
WINDOM         CLOUDY    70  64  83 W3        29.78R
WORTHINGTON    CLOUDY    66  63  88 SW8       29.83R
JACKSON        CLOUDY    68  66  94 E5        29.76F
TRACY          CLOUDY    68  64  88 S13       29.75R
SLAYTON        CLOUDY    66  65  98 S9        29.80R
$$
MNZ065>067-074>077-082>085-091>093-281400-
   South Central Minnesota

CITY           SKY/WX    TMP DP  RH WIND       PRES   REMARKS
MANKATO        CLOUDY    68  64  88 S13       29.82F
NEW ULM        LGT RAIN  66  66 100 SE12G20   29.68F
ST JAMES       CLOUDY    70  66  88 SE15G24   29.71F
FAIRMONT       CLOUDY    68  61  77 SE20      29.76F
GLENCOE        LGT RAIN  70  69  97 E12       29.74F
FARIBAULT      CLOUDY    68  66  94 S6        29.91R
OWATONNA       TSTM      66  64  94 SE7       29.93F
WASECA         CLOUDY    66  64  94 SE7       29.91S
ALBERT LEA     CLOUDY    68  68 100 CALM      29.96
$$
MNZ078>079-086>088-094>096-281400-
   Southeast Minnesota

CITY           SKY/WX    TMP DP  RH WIND       PRES   REMARKS
ROCHESTER      LGT RAIN  72  70  93 S15G23    29.91R FOG
RED WING       HVY RAIN  73  72  94 W12       29.92R
STANTON        TSTM      71  68  89 S5        29.87F
DODGE CENTER   TSTM      66  66 100 W13G23    29.97R
WINONA         LGT RAIN  73  70  88 SE7       29.88F
AUSTIN         TSTM      72  66  83 S6G17     29.92R
PRESTON        CLOUDY    70  68  95 SE14      29.90F
$$
ABBREVIATIONS USED IN REMARKS
   TC - TEMPERATURES IN CELSIUS
  WCI - WIND CHILL INDEX
   HX - HEAT INDEX
  VSB - VISIBILITY
$$



USA.gov is the U.S. government's official web portal to all federal, state and local government web resources and services.